Regional Weather Roundup
Issued by NWS Columbia, SC

Home | Current Version | Previous Version | Text Only | Print | Product List | Glossary On
Versions: 1 2 3 4 5 6 7 8 9 10 11 12 13 14 15 16 17 18 19 20 21 22 23 24 25 26 27 28 29 30 31 32 33 34 35 36 37 38 39 40 41 42 43 44 45 46 47 48 49 50
000
ASUS42 KCAE 290810
RWRCAE
REGIONAL WEATHER ROUNDUP
NATIONAL WEATHER SERVICE COLUMBIA SC
400 AM EDT FRI APR 29 2016

NOTE: "FAIR" INDICATES FEW OR NO CLOUDS BELOW 12,000 FEET WITH NO
SIGNIFICANT WEATHER AND/OR OBSTRUCTIONS TO VISIBILITY.

NOT ALL STATIONS ARE QUALITY CONTROLLED BY THE NATIONAL
WEATHER SERVICE. USE DATA WITH CAUTION...ESPECIALLY
DEWPOINT OBSERVATIONS.

SCZ001>056-GAZ040-063>065-077-290900-
...UPSTATE SOUTH CAROLINA...

CITY           SKY/WX    TMP DP  RH WIND       PRES   REMARKS
ANDERSON       CLEAR     60  54  80 W3        29.94R
LIBERTY          N/A     55  53  93 W3        29.93S
SPARTANBURG    CLEAR     64  50  59 NW5       29.93R
CLEMSON        CLEAR     68  54  60 W9        29.95R
GREENVILLE     CLEAR     65  52  62 N5        29.95R
GREENWOOD      CLEAR     65  55  70 W5        29.94R
GREER          CLEAR     64  53  67 CALM      29.93R
ROCK HILL      CLEAR     57  55  93 CALM      29.92R
CHESTER        SUNNY     59  55  88 CALM      29.93R
LAURENS        SUNNY     59  54  82 CALM      29.93R


...CENTRAL SOUTH CAROLINA...

CITY           SKY/WX    TMP DP  RH WIND       PRES   REMARKS
COLUMBIA APT   PTCLDY    70  66  87 SW3       29.90R
COLUMBIA OWENS PTCLDY    70  65  84 CALM      29.91R
MCENTIRE ANGB  CLEAR     66  65  97 CALM      29.90S
ORANGEBURG     CLEAR     71  67  87 W7        29.91S
SUMTER SHAW    CLEAR     69  66  91 W3        29.88R
NEWBERRY       SUNNY     61  61 100 CALM      29.95R
AIKEN          FAIR      64  63  94 W7        29.96R
BARNWELL       FAIR      72  72 100 SW6       29.93S
CAMDEN         FAIR      68  64  88 CALM      29.91R
LANCASTER      SUNNY     64  64 100 CALM      29.92R
WINNSBORO      MOSUNNY   64  61  88 W3        29.92R


...EASTERN AND COASTAL SOUTH CAROLINA...

CITY           SKY/WX    TMP DP  RH WIND       PRES   REMARKS
MYRTLE BEACH   CLEAR     72  63  73 W12       29.90S
N MYRTLE BCH   CLEAR     71  67  87 W7        29.87S
CONWAY         FAIR      66  64  94 SW5       29.89R
MARION         FAIR      64  64 100 S3        29.88S
HARTSVILLE     FAIR      66  63  88 CALM      29.89R
FLORENCE       CLEAR     68  66  93 W5        29.88S
CHARLESTON APT PTCLDY    70  66  87 SW6       29.91S
MOUNT PLEASANT FAIR      70  70 100 W3        29.91S
WALTERBORO     SUNNY     70  70 100 W6        29.93R
BEAUFORT       CLEAR     70  67  90 SW7       29.93S


...EASTERN GEORGIA...

CITY           SKY/WX    TMP DP  RH WIND       PRES   REMARKS
AUGUSTA BUSH F CLEAR     68  66  93 W3        29.92R
AUGUSTA DANIEL CLEAR     72  66  81 W7        29.93S
THOMSON        CLEAR     68  68 100 CALM      29.98S
WASHINGTON     FAIR      63  61  94 CALM      29.94S
CLAXTON        FOG       65  65 100 CALM      29.95S VSB 1
SYLVANIA       SUNNY     68  68 100 SW3       29.94S FOG
STATESBORO     CLEAR     71  71 100 CALM      29.94S
SAVANNAH       MOCLDY    70  66  87 SW3       29.95R


...SOUTHERN NORTH CAROLINA...

CITY           SKY/WX    TMP DP  RH WIND       PRES   REMARKS
CHARLOTTE      CLEAR     62  56  80 N5        29.93R
MONROE         CLEAR     63  59  87 NE7       29.92R
WADESBORO      SUNNY     66  66 100 N6        29.91R
ROCKINGHAM     SUNNY     67  64  90 N6        29.90R
RUTHERFORDTON  CLEAR     61  53  75 N6        29.95R
ASHEVILLE      CLEAR     65  51  60 N7        30.00R

$$



USA.gov is the U.S. government's official web portal to all federal, state and local government web resources and services.